Location: Mason Neck State Park
(38.6428°N, 77.1981°W)
Time: 07:17:14
(UTC-05:00)

Daily predictions for brighter satellites

Satellite Brightness Start Highest point End
(mag) Time Altitude Azimuth Time Altitude Azimuth Time Altitude Azimuth
SMAP 3.1 17:21:19 10° SSE 17:25:52 58° ENE 17:30:26 10° N
USA 161 3.8 17:25:51 10° NW 17:26:59 14° WNW 17:28:08 10° WSW
Cosmos 2233 Rocket 4.1 17:21:20 10° S 17:27:27 58° E 17:33:33 10° NNE
Cosmos 1763 Rocket 3.7 17:24:30 10° N 17:29:32 47° ENE 17:34:28 10° SE
ERS-2 3.3 17:27:25 10° ESE 17:30:21 23° ENE 17:33:18 10° NNE
Cosmos 1908 Rocket 4.2 17:26:44 10° NNE 17:30:39 32° ENE 17:34:32 10° SE
Cosmos 1733 Rocket 3.1 17:28:35 10° N 17:33:03 88° E 17:37:30 10° S
Cosmos 1844 Rocket 3.7 17:27:57 10° SW 17:33:22 46° WNW 17:38:47 10° N
AQUARIUS 4.1 17:29:46 10° SSE 17:34:13 70° ENE 17:38:42 10° N
Cosmos 2242 Rocket 4.1 17:30:37 10° SSW 17:35:09 66° W 17:39:41 10° N
CZ-2C R/B 4.1 17:34:02 10° SSW 17:38:37 38° W 17:43:22 10° NNW
COSMOS 2406 3.7 17:33:21 10° NNW 17:39:01 65° WSW 17:44:39 10° S
Cosmos 1814 Rocket 4.0 17:36:02 10° NNW 17:41:23 69° ENE 17:46:42 10° SSE
Cosmos 1862 Rocket 3.9 17:37:43 10° SSW 17:42:07 73° W 17:46:35 10° N
Sich 1 Rocket 4.1 17:38:33 10° N 17:42:40 36° ENE 17:46:46 10° SE
Meteor 1-14 Rocket 4.2 17:38:45 10° N 17:44:23 63° E 17:49:53 10° SSE
CZ-4C R/B 4.1 17:41:42 10° N 17:46:41 20° NE 17:50:24 14° ENE
SL-27 R/B 3.2 17:45:38 10° N 17:48:32 27° ENE 17:51:27 10° SE
IRS-1A Rocket 4.3 17:43:43 10° SSE 17:49:30 69° ENE 17:55:12 10° N
Ariane Rocket 3.5 17:48:31 10° S 17:53:34 66° WSW 17:58:38 10° NNW
FENGYUN 3A 4.3 17:49:21 10° SE 17:54:05 32° ENE 17:58:50 10° N
COSMOS 2455 3.6 17:52:33 10° SW 17:58:23 51° WNW 18:04:15 10° NNE
USA 234 3.4 17:52:30 13° NE 17:58:26 62° SE 18:04:53 10° SSW
Cosmos 540 Rocket 4.1 17:54:20 10° N 17:59:01 33° ENE 18:03:39 10° SE
Okean 1-7 3.4 17:57:06 10° SSE 18:01:14 43° E 18:05:25 10° NNE
CZ-4 R/B 4.3 17:57:47 10° SSE 18:01:54 69° ENE 18:06:03 10° N
Cosmos 2297 4.1 17:56:35 10° S 18:01:57 44° ESE 18:06:35 14° NE
Cosmos 1833 Rocket 3.2 17:57:58 10° N 18:03:08 36° ENE 18:08:16 10° SE
Cosmos 841 Rocket 3.4 17:58:54 10° NNW 18:04:12 74° ENE 18:09:26 10° SSE
Cosmos 1633 2.8 18:01:47 10° N 18:05:20 46° E 18:08:53 10° SSE
MTI 3.7 18:03:24 10° NNE 18:06:37 89° ESE 18:09:50 10° SSW
CZ-4 R/B 1.8 18:02:55 10° S 18:06:46 61° W 18:10:34 10° NNW
Cosmos 2278 Rocket 2.6 18:02:07 10° SSW 18:07:45 67° WNW 18:13:25 10° NNE
Lacrosse 5 4.2 18:06:48 10° NW 18:08:30 11° NNW 18:10:13 10° N
Cosmos 1486 Rocket 4.2 18:03:55 10° SSW 18:09:06 76° WNW 18:14:22 10° NNE
Cosmos 44 Rocket 4.4 18:09:04 10° N 18:13:00 24° NE 18:13:12 24° NE
MOS 1 4.2 18:08:31 10° SSE 18:14:11 72° ENE 18:19:53 10° N
Cosmos 1782 Rocket 3.5 18:10:49 10° N 18:15:07 59° E 18:19:25 10° SSE
YAOGAN 1 2.9 18:15:00 10° S 18:19:17 68° WSW 18:23:36 10° NNW
COSMO-SKYMED 1 2.5 18:15:29 10° NNE 18:19:50 89° WNW 18:24:10 10° SSW
Cosmos 1072 Rocket 4.4 18:15:34 10° S 18:21:43 74° E 18:28:01 10° N
SPOT 3 Rocket 3.4 18:18:38 10° SSE 18:23:49 71° ENE 18:29:01 10° N
Cosmos 1354 Rocket 3.9 18:20:14 10° SSW 18:25:30 77° ESE 18:29:47 16° NNE
Cosmos 292 Rocket 4.3 18:22:22 10° N 18:26:25 34° ENE 18:26:25 34° ENE
Cosmos 1441 Rocket 3.9 18:23:32 10° SSE 18:26:30 35° ESE 18:26:30 35° ESE
BREEZE-M DEB (TANK) 2.6 18:25:33 10° WSW 18:27:36 45° NNW 18:27:47 44° N
Cosmos 1606 3.0 18:24:11 10° SSW 18:27:56 64° W 18:31:42 10° N
MONITOR-E 4.2 18:24:56 10° S 18:27:57 76° WSW 18:31:01 10° NNW
Nadezhda 4 Rocket 4.4 18:22:28 10° N 18:28:05 36° ENE 18:33:39 10° SE
Cosmos 2034 Rocket 4.1 18:22:06 10° SSE 18:28:17 56° E 18:34:28 10° NNE
Cosmos 2221 Rocket 3.5 18:27:33 10° S 18:31:58 90° NW 18:36:18 11° N
EO 1 Del DPAF 3.9 18:30:44 10° N 18:34:30 56° WNW 18:38:13 10° SSW
NOAA 12 4.0 18:33:34 10° SSE 18:38:53 85° ENE 18:44:14 10° NNW
Meteor 2-6 Rocket 4.1 18:34:36 10° S 18:40:01 86° W 18:45:35 10° N
CENTAUR R/B 4.5 18:37:01 10° W 18:41:47 22° NW 18:47:02 10° NNE
Cosmos 1782 4.0 18:40:37 10° SSW 18:44:26 42° W 18:48:17 10° N
Cosmos 44 3.7 18:41:30 10° NNW 18:45:15 43° NNE 18:45:15 43° NNE
Cosmos 2082 Rocket 2.1 18:43:28 10° NNW 18:49:11 85° ENE 18:54:50 10° SSE
Meteor 2-20 4.3 18:46:46 10° N 18:52:52 74° E 18:58:55 10° SSE
ALOS 2.6 18:49:15 10° S 18:53:52 65° W 18:58:32 10° NNW
Okean 2 Rocket 3.1 18:49:39 10° N 18:54:11 79° W 18:58:42 10° S
Cosmos 1464 Rocket 4.4 18:51:09 10° SSW 18:57:11 63° W 19:03:18 10° N
FengYun 1-2 T 4.1 18:52:29 10° SSE 18:57:55 66° ENE 19:03:26 10° N
Thor Agena Rocket 3.4 18:59:06 68° ESE 18:59:06 68° ESE 19:04:05 10° S
Cosmos 405 Rocket 3.1 18:55:17 10° SSW 18:58:57 59° W 18:58:57 59° W
Meteor 1-27 Rocket 3.8 19:00:55 10° S 19:06:48 82° W 19:11:10 19° N
BREEZE-M R/B 4.2 19:20:29 10° WNW 19:22:51 40° WSW 19:22:51 40° WSW
CZ-4C R/B 2.9 19:29:06 10° NNW 19:35:39 68° NNE 19:35:39 68° NNE
Cosmos 968 Rocket 4.4 19:33:26 10° SSW 19:37:11 43° WSW 19:37:11 43° WSW
USA 234 4.1 19:39:52 37° N 19:41:12 41° NNW 19:47:13 10° W
Cosmos 1833 Rocket 4.4 19:42:06 10° NW 19:46:54 29° WSW 19:51:40 10° SSW
